CST,Max TemperatureF,Mean TemperatureF,Min TemperatureF,Max Dew PointF,MeanDew PointF,Min DewpointF,Max Humidity, Mean Humidity, Min Humidity, Max Sea Level PressureIn, Mean Sea Level PressureIn, Min Sea Level PressureIn, Max VisibilityMiles, Mean VisibilityMiles, Min VisibilityMiles, Max Wind SpeedMPH, Mean Wind SpeedMPH, Max Gust SpeedMPH,PrecipitationIn, CloudCover, Events, WindDirDegrees
2013-2-1,50,34,18,27,20,14,85,60,35,30.42,30.29,30.13,10,10,10,16,8,,0.00,0,,96
2013-2-2,63,46,30,34,28,25,82,56,25,30.34,30.27,30.13,10,10,10,17,9,,0.00,0,,14
2013-2-3,67,48,28,31,25,20,81,48,16,30.33,30.15,29.88,10,10,10,21,5,30,0.00,1,,178
2013-2-4,67,53,39,44,33,27,75,48,22,29.96,29.86,29.79,10,10,10,20,10,23,0.00,2,,48
2013-2-5,68,48,29,54,42,24,100,77,26,30.16,29.99,29.91,10,10,8,13,6,,0.00,3,,106
2013-2-6,73,60,48,59,52,48,100,95,46,30.01,29.95,29.75,10,4,0,17,5,25,0.00,7,Fog-Rain,125
2013-2-7,62,52,40,59,47,27,100,85,33,30.21,29.85,29.72,10,7,0,33,13,41,0.02,3,Fog,34
2013-2-8,58,44,30,30,25,16,83,53,20,30.30,30.21,30.09,10,10,10,12,7,,0.00,0,,83
2013-2-9,54,46,39,54,47,28,100,93,64,30.07,29.76,29.60,10,6,2,30,16,43,0.00,7,Rain,139
2013-2-10,62,49,36,54,27,17,94,46,18,30.04,29.82,29.69,10,10,10,17,11,17,0.01,1,,287
2013-2-11,54,42,30,29,25,23,80,53,29,30.22,30.11,30.04,10,10,10,17,12,,0.00,2,,54
2013-2-12,41,36,32,37,35,27,100,95,65,30.12,30.02,29.95,10,8,0,24,13,31,0.65,7,Rain-Snow,14
2013-2-13,54,40,27,35,31,28,99,78,40,30.13,30.07,29.99,10,10,10,8,5,,0.00,0,,284
2013-2-14,62,44,27,40,33,26,94,68,35,30.22,30.06,29.99,10,10,7,29,9,39,0.00,1,,21
2013-2-15,44,37,30,36,26,20,85,65,42,30.46,30.38,30.26,10,10,10,15,10,,0.00,3,,34
2013-2-16,57,42,26,36,31,27,100,89,33,30.43,30.35,30.09,10,7,1,15,6,,0.00,5,,316
2013-2-17,72,50,28,33,28,24,94,54,17,30.08,29.88,29.70,10,10,10,25,10,32,0.00,0,,155
2013-2-18,59,46,32,45,32,25,93,55,28,30.16,29.86,29.60,10,10,10,26,14,36,0.00,0,,317
2013-2-19,56,42,27,28,25,22,86,55,27,30.32,30.20,30.10,10,10,10,17,9,22,0.00,1,,85
2013-2-20,46,40,35,41,38,30,100,95,53,30.11,29.96,29.73,10,7,2,32,20,43,0.23,8,Rain,112
2013-2-21,45,36,26,39,34,19,100,92,70,30.06,29.75,29.68,10,7,2,24,12,32,0.39,7,Rain-Thunderstorm,13
2013-2-22,41,32,23,27,21,16,90,68,48,30.19,30.12,30.04,10,10,10,14,8,,0.00,0,,354
2013-2-23,48,36,24,34,28,23,100,82,53,30.12,30.04,29.84,10,8,1,15,6,,0.00,3,Snow,211
2013-2-24,66,49,32,45,38,30,100,82,42,29.84,29.71,29.59,10,8,3,31,16,47,0.39,4,Rain-Thunderstorm,58
2013-2-25,42,37,32,43,37,31,100,98,87,29.81,29.62,29.48,10,6,1,32,23,46,0.95,7,Rain-Snow-Thunderstorm,4
2013-2-26,46,38,29,33,29,25,87,77,56,29.94,29.88,29.81,10,10,10,18,13,26,0.00,0,,331
2013-2-27,49,40,30,32,28,25,85,66,40,30.29,30.17,29.96,10,10,10,26,13,36,0.00,1,,331
2013-2-28,53,40,28,29,27,22,89,65,30,30.33,30.28,30.23,10,10,10,20,9,22,0.00,0,,329